#timestamp,LO_Frequency,Hit,Temp,Hum 
1479999615.8,286046986.6,N,0.0,0.0
1479999635.7,286046988.4,N,0.0,0.0
1479999655.5,286046988.1,N,0.0,0.0
1479999675.4,286046985.4,N,0.0,0.0
1479999695.2,286046988.1,N,0.0,0.0
1479999715.0,286046985.6,N,0.0,0.0
1479999715.9,286046985.6,N,0.0,0.0
1479999735.8,286046986.1,N,0.0,0.0
1479999755.6,286046986.5,N,0.0,0.0
1479999775.4,286046985.5,N,0.0,0.0
1479999795.3,286046985.3,N,0.0,0.0
1479999815.1,286046988.3,N,0.0,0.0
1479999835.9,286046987.1,N,0.0,0.0
1479999855.7,286046989.3,N,0.0,0.0
1479999875.5,286046988.8,N,0.0,0.0
1479999895.4,286046991.3,N,0.0,0.0
1479999915.2,286046991.0,N,0.0,0.0
1479999935.1,286046990.5,N,0.0,0.0
1479999936.0,286046990.5,N,0.0,0.0
1479999955.8,286046991.2,N,0.0,0.0
1479999975.6,286046990.2,N,0.0,0.0
1479999995.5,286046990.2,N,0.0,0.0
1480000015.3,286046991.4,N,0.0,0.0
1480000035.1,286046990.8,N,0.0,0.0
1480000055.9,286046990.1,N,0.0,0.0
1480000075.7,286046991.1,N,0.0,0.0
1480000095.6,286046990.3,N,0.0,0.0
1480000115.4,286046991.6,N,0.0,0.0
1480000135.2,286046991.3,N,0.0,0.0
1480000155.1,286046990.9,N,0.0,0.0
1480000156.0,286046990.9,N,0.0,0.0
1480000175.8,286046991.2,N,0.0,0.0
1480000195.7,286046988.8,N,0.0,0.0
1480000215.5,286046988.7,N,0.0,0.0
1480000235.3,286046991.6,N,0.0,0.0
1480000255.2,286046988.6,N,0.0,0.0
1480000275.9,286046990.9,N,0.0,0.0
1480000295.7,286046990.2,N,0.0,0.0
1480000315.6,286046992.5,N,0.0,0.0
1480000335.4,286046990.4,N,0.0,0.0
1480000355.3,286046990.6,N,0.0,0.0
1480000375.1,286046990.2,N,0.0,0.0
1480000376.0,286046990.2,N,0.0,0.0
1480000395.8,286046990.1,N,0.0,0.0
1480000415.7,286046990.4,N,0.0,0.0
1480000435.5,286046991.5,N,0.0,0.0
1480000455.3,286046991.6,N,0.0,0.0
1480000475.2,286046988.6,N,0.0,0.0
1480000495.0,286046989.4,N,0.0,0.0
1480000495.9,286046989.4,N,0.0,0.0
1480000515.8,286046988.5,N,0.0,0.0
1480000535.6,286046990.9,N,0.0,0.0
1480000555.4,286046991.1,N,0.0,0.0
1480000575.3,286046990.2,N,0.0,0.0
1480000595.1,286046990.8,N,0.0,0.0
1480000615.9,286046990.8,N,0.0,0.0
1480000635.7,286046991.4,N,0.0,0.0
1480000655.5,286046991.6,N,0.0,0.0
1480000675.4,286046988.5,N,0.0,0.0
1480000695.2,286046988.8,N,0.0,0.0
1480000715.0,286046988.7,N,0.0,0.0
1480000716.0,286046988.7,N,0.0,0.0
1480000735.8,286046989.0,N,0.0,0.0
1480000755.6,286046990.4,N,0.0,0.0
1480000775.5,286046992.5,N,0.0,0.0
1480000795.3,286046992.4,N,0.0,0.0
1480000815.1,286046990.5,N,0.0,0.0
1480000835.9,286046990.9,N,0.0,0.0
1480000855.7,286046991.4,N,0.0,0.0
1480000875.6,286046992.8,N,0.0,0.0
1480000895.4,286046990.1,N,0.0,0.0
1480000915.2,286046992.5,N,0.0,0.0
1480000935.1,286046992.2,N,0.0,0.0
1480000936.0,286046992.2,N,0.0,0.0
1480000955.8,286046992.2,N,0.0,0.0
1480000975.7,286046993.8,N,0.0,0.0
1480000995.5,286046993.6,N,0.0,0.0
1480001015.3,286046993.9,N,0.0,0.0
1480001035.2,286046996.2,N,0.0,0.0
1480001055.0,286046997.7,N,0.0,0.0
1480001055.9,286046997.7,N,0.0,0.0
1480001075.7,286046996.6,N,0.0,0.0
1480001095.6,286046998.5,N,0.0,0.0
1480001115.4,286047000.3,N,0.0,0.0
1480001135.3,286047002.1,N,0.0,0.0
1480001155.1,286047002.0,N,0.0,0.0
1480001175.8,286047004.2,N,0.0,0.0
1480001195.7,286047003.6,N,0.0,0.0
1480001215.5,286047001.7,N,0.0,0.0
1480001235.4,286047001.8,N,0.0,0.0
1480001255.2,286047001.3,N,0.0,0.0
1480001275.0,286047004.3,N,0.0,0.0
1480001275.9,286047004.3,N,0.0,0.0
1480001295.8,286047001.9,N,0.0,0.0
1480001315.6,286047000.9,N,0.0,0.0
1480001335.4,286046998.1,N,0.0,0.0
1480001355.3,286046998.9,N,0.0,0.0
1480001375.1,286047000.7,N,0.0,0.0
1480001395.9,286046998.9,N,0.0,0.0
1480001415.7,286046998.9,N,0.0,0.0
1480001435.5,286046996.8,N,0.0,0.0
1480001455.4,286046995.4,N,0.0,0.0
1480001475.2,286046995.5,N,0.0,0.0
1480001495.1,286046993.3,N,0.0,0.0
1480001496.0,286046993.3,N,0.0,0.0
1480001515.8,286046993.5,N,0.0,0.0
1480001535.6,286046991.7,N,0.0,0.0
1480001555.5,286046994.8,N,0.0,0.0
1480001575.3,286046993.9,N,0.0,0.0
1480001595.1,286046993.8,N,0.0,0.0
1480001615.9,286046993.9,N,0.0,0.0
1480001635.7,286046992.3,N,0.0,0.0
1480001655.6,286046990.3,N,0.0,0.0
1480001675.4,286046991.4,N,0.0,0.0
1480001695.2,286046991.0,N,0.0,0.0
1480001715.1,286046991.2,N,0.0,0.0
1480001716.0,286046991.2,N,0.0,0.0
1480001735.8,286046988.5,N,0.0,0.0
1480001755.7,286046989.6,N,0.0,0.0
1480001775.5,286046988.2,N,0.0,0.0
1480001795.3,286046986.0,N,0.0,0.0
1480001815.2,286046986.6,N,0.0,0.0
1480001835.9,286046984.2,N,0.0,0.0
1480001855.7,286046984.6,N,0.0,0.0
1480001875.6,286046984.9,N,0.0,0.0
1480001895.4,286046983.9,N,0.0,0.0
1480001915.3,286046984.0,N,0.0,0.0
1480001935.1,286046982.6,N,0.0,0.0
1480001936.0,286046982.6,N,0.0,0.0
1480001955.8,286046983.3,N,0.0,0.0
1480001975.7,286046980.9,N,0.0,0.0
1480001995.5,286046981.7,N,0.0,0.0
1480002015.4,286046981.7,N,0.0,0.0
1480002035.2,286046981.6,N,0.0,0.0
1480002055.0,286046978.9,N,0.0,0.0
1480002055.9,286046978.9,N,0.0,0.0
1480002075.8,286046982.0,N,0.0,0.0
1480002095.6,286046979.9,N,0.0,0.0
1480002115.4,286046980.4,N,0.0,0.0
1480002135.3,286046979.9,N,0.0,0.0
1480002155.1,286046980.3,N,0.0,0.0
1480002175.9,286046977.3,N,0.0,0.0
1480002195.7,286046980.2,N,0.0,0.0
1480002215.5,286046979.2,N,0.0,0.0
1480002235.4,286046979.9,N,0.0,0.0
1480002255.2,286046980.0,N,0.0,0.0
1480002275.0,286046980.4,N,0.0,0.0
1480002276.0,286046980.4,N,0.0,0.0
1480002295.8,286046977.5,N,0.0,0.0
1480002315.6,286046978.0,N,0.0,0.0
1480002335.5,286046978.8,N,0.0,0.0
1480002355.3,286046978.8,N,0.0,0.0
1480002375.1,286046975.9,N,0.0,0.0
1480002395.9,286046976.1,N,0.0,0.0
1480002415.7,286046976.2,N,0.0,0.0
1480002435.6,286046976.0,N,0.0,0.0
1480002455.4,286046976.5,N,0.0,0.0
1480002475.2,286046976.0,N,0.0,0.0
1480002495.1,286046976.5,N,0.0,0.0
1480002496.0,286046976.5,N,0.0,0.0
1480002515.8,286046974.4,N,0.0,0.0
1480002535.7,286046974.8,N,0.0,0.0
1480002555.5,286046975.0,N,0.0,0.0
1480002575.3,286046975.5,N,0.0,0.0
1480002595.2,286046972.6,N,0.0,0.0
1480002615.0,286046975.6,N,0.0,0.0
1480002615.9,286046975.6,N,0.0,0.0
1480002635.8,286046975.1,N,0.0,0.0
1480002655.6,286046974.7,N,0.0,0.0
1480002675.4,286046972.6,N,0.0,0.0
1480002695.3,286046973.8,N,0.0,0.0
1480002715.1,286046971.0,N,0.0,0.0
1480002735.8,286046971.1,N,0.0,0.0
1480002755.7,286046970.9,N,0.0,0.0
1480002775.5,286046973.4,N,0.0,0.0
1480002795.4,286046971.0,N,0.0,0.0
1480002815.2,286046969.8,N,0.0,0.0
1480002835.0,286046970.4,N,0.0,0.0
1480002835.9,286046970.4,N,0.0,0.0
1480002855.8,286046970.0,N,0.0,0.0
1480002875.6,286046969.3,N,0.0,0.0
1480002895.5,286046969.7,N,0.0,0.0
1480002915.3,286046972.4,N,0.0,0.0
1480002935.1,286046972.4,N,0.0,0.0
1480002955.9,286046969.6,N,0.0,0.0
1480002975.7,286046968.2,N,0.0,0.0
1480002995.5,286046966.1,N,0.0,0.0
1480003015.4,286046966.5,N,0.0,0.0
1480003035.2,286046966.6,N,0.0,0.0
1480003055.1,286046966.5,N,0.0,0.0
1480003056.0,286046966.5,N,0.0,0.0
1480003075.8,286046969.2,N,0.0,0.0
1480003095.6,286046968.7,N,0.0,0.0
1480003115.5,286046968.8,N,0.0,0.0
1480003135.3,286046969.1,N,0.0,0.0
1480003155.1,286046966.3,N,0.0,0.0
1480003175.9,286046967.6,N,0.0,0.0
1480003195.7,286046967.1,N,0.0,0.0
